Waarnemingen

Advertentie
Mijn weer
Semmerzake, België (6428): temperatuur & dauwpunt: 18.01.2018 12:00:00 - 24.01.2018 12:00:00 (CET)Semmerzake, België (6428): windsnelheid & windstoten: 18.01.2018 12:00:00 - 24.01.2018 12:00:00 (CET)Semmerzake, België (6428): windrichting: 18.01.2018 12:00:00 - 24.01.2018 12:00:00 (CET)Semmerzake, België (6428): luchtdruk: 18.01.2018 12:00:00 - 24.01.2018 12:00:00 (CET)Semmerzake, België (6428): zicht: 18.01.2018 12:00:00 - 24.01.2018 12:00:00 (CET)
Datum & Tijd tt [°C] td [°C] ff [km/u] ff [kn] fx [km/u] fx [kn] dd ppp [hPa] vv [km]
24.01.2018 12:00:00 13,8 10,3 40 21 72 39 ZZW 1013,0 20
24.01.2018 11:00:00 13,1 10,4 40 21 65 35 ZZW 1013,8 20
24.01.2018 10:00:00 12,3 10,3 32 18 - - ZZW 1014,7 20
24.01.2018 09:00:00 12,0 10,4 29 16 50 27 ZZW 1015,2 20
24.01.2018 08:00:00 11,8 10,3 25 14 47 25 ZZW 1015,7 20
24.01.2018 07:00:00 11,8 10,1 22 12 - - ZZW 1016,2 14
24.01.2018 06:00:00 11,7 10,2 25 14 40 21 ZZW 1016,7 20
24.01.2018 05:00:00 11,6 10,5 22 12 47 25 ZZW 1017,2 16
24.01.2018 04:00:00 11,5 10,5 22 12 - - ZZW 1017,7 9
24.01.2018 03:00:00 11,3 10,8 22 12 40 21 ZZW 1018,2 15
24.01.2018 02:00:00 11,3 10,8 22 12 36 19 ZZW 1018,6 3,9
24.01.2018 01:00:00 10,8 10,5 18 10 - - ZZW 1019,0 3,3
24.01.2018 00:00:00 11,2 10,1 22 12 40 21 ZZW 1018,7 18
23.01.2018 23:00:00 10,8 9,8 25 14 40 21 ZZW 1018,7 17
23.01.2018 22:00:00 10,8 9,4 25 14 - - ZZW 1018,7 20
23.01.2018 21:00:00 10,5 8,9 29 16 43 23 ZZW 1018,6 17
23.01.2018 20:00:00 9,8 8,6 25 14 47 25 ZZW 1018,7 15
23.01.2018 19:00:00 9,6 8,1 29 16 - - ZZW 1018,7 15
23.01.2018 18:00:00 9,1 7,8 25 14 47 25 ZZW 1019,1 17
23.01.2018 17:00:00 8,8 7,9 29 16 47 25 ZZW 1018,8 6
23.01.2018 16:00:00 8,8 7,6 29 16 - - ZZW 1019,0 20
23.01.2018 15:00:00 8,8 7,3 25 14 43 23 ZZW 1019,3 4,3
23.01.2018 14:00:00 9,1 6,3 25 14 47 25 ZZW 1019,8 20
23.01.2018 13:00:00 9,5 5,8 29 16 - - ZZW 1020,2 20
23.01.2018 12:00:00 9,1 5,2 25 14 43 23 ZZW 1020,7 20
23.01.2018 11:00:00 8,7 4,9 25 14 36 19 ZZW 1021,3 19
23.01.2018 10:00:00 7,6 5,1 18 10 - - ZZW 1021,5 20
23.01.2018 09:00:00 7,2 5,5 18 10 29 16 ZZW 1021,7 19
23.01.2018 08:00:00 7,0 5,2 14 8 25 14 ZZW 1021,5 18
23.01.2018 07:00:00 6,7 4,7 14 8 - - ZZW 1021,5 18
23.01.2018 06:00:00 6,9 3,9 14 8 22 12 ZZW 1021,5 20
23.01.2018 05:00:00 6,5 3,9 7 4 14 8 ZZW 1021,2 19
23.01.2018 04:00:00 6,5 3,8 11 6 - - ZZW 1021,2 19
23.01.2018 03:00:00 6,6 3,6 7 4 14 8 ZW 1021,3 20
23.01.2018 02:00:00 7,0 4,0 11 6 18 10 ZW 1021,2 19
23.01.2018 01:00:00 6,9 4,1 7 4 - - WZW 1021,2 19
23.01.2018 00:00:00 7,0 4,2 7 4 14 8 WZW 1020,3 18
22.01.2018 23:00:00 7,1 4,1 7 4 14 8 W 1020,0 18
22.01.2018 22:00:00 6,7 4,5 7 4 - - WZW 1018,8 13
22.01.2018 21:00:00 6,5 4,4 7 4 14 8 WZW 1018,2 15
22.01.2018 20:00:00 5,9 4,0 7 4 14 8 W 1017,7 15
22.01.2018 19:00:00 6,0 4,0 7 4 - - W 1017,1 15
22.01.2018 18:00:00 6,6 4,2 4 2 22 12 - 1015,7 16
22.01.2018 17:00:00 8,1 4,1 14 8 25 14 WNW 1014,5 20
22.01.2018 16:00:00 9,2 4,0 11 6 - - NW 1012,8 20
22.01.2018 15:00:00 9,6 4,8 11 6 22 12 NW 1011,5 15
22.01.2018 14:00:00 9,3 5,9 11 6 22 12 NW 1010,7 19
22.01.2018 13:00:00 9,0 6,6 11 6 - - NW 1010,0 18
22.01.2018 12:00:00 8,7 8,0 4 2 11 6 N 1009,6 10
22.01.2018 11:00:00 8,6 8,2 4 2 11 6 N 1009,1 9
22.01.2018 10:00:00 8,6 8,3 4 2 - - N 1008,2 4,6
22.01.2018 09:00:00 8,5 8,4 7 4 18 10 NW 1007,8 4,8
22.01.2018 08:00:00 8,6 8,3 7 4 18 10 WZW 1007,6 8
22.01.2018 07:00:00 8,8 8,3 11 6 - - WZW 1007,3 12
22.01.2018 06:00:00 9,0 8,7 7 4 22 12 W 1007,2 9
22.01.2018 05:00:00 8,8 8,6 11 6 22 12 WZW 1007,1 7
22.01.2018 04:00:00 7,5 7,5 14 8 - - ZW 1007,0 4,5
22.01.2018 03:00:00 6,0 6,0 11 6 22 12 ZW 1006,7 3,1
22.01.2018 02:00:00 4,9 4,9 14 8 25 14 ZZW 1007,0 1,8
22.01.2018 01:00:00 4,3 4,0 18 10 - - ZZW 1007,2 3,7
22.01.2018 00:00:00 3,3 3,1 14 8 25 14 Z 1007,6 3,3
21.01.2018 23:00:00 2,9 2,4 18 10 32 18 Z 1008,5 3,7
21.01.2018 22:00:00 2,5 1,8 18 10 - - ZZO 1009,5 10
21.01.2018 21:00:00 2,3 1,5 18 10 32 18 ZZO 1010,7 11
21.01.2018 20:00:00 2,3 1,4 18 10 36 19 ZZO 1012,2 15
21.01.2018 19:00:00 2,1 1,3 18 10 - - Z 1013,2 11
21.01.2018 18:00:00 2,0 1,1 14 8 25 14 Z 1014,6 15
21.01.2018 17:00:00 2,3 1,5 14 8 25 14 Z 1015,7 14
21.01.2018 16:00:00 4,0 1,5 14 8 - - ZZW 1016,2 16
21.01.2018 15:00:00 4,0 2,6 11 6 14 8 Z 1016,3 10
21.01.2018 14:00:00 4,0 2,6 7 4 14 8 ZZW 1016,8 7
21.01.2018 13:00:00 3,2 2,4 7 4 - - ZZW 1017,2 6
21.01.2018 12:00:00 2,5 2,0 7 4 11 6 ZZW 1017,8 6
21.01.2018 11:00:00 1,7 1,1 7 4 11 6 ZZW 1017,7 6
21.01.2018 10:00:00 1,0 0,5 7 4 - - ZZW 1017,0 8
21.01.2018 09:00:00 0,8 0,3 4 2 7 4 N 1016,3 10
21.01.2018 08:00:00 0,4 0,0 4 2 7 4 N 1015,6 10
21.01.2018 07:00:00 0,8 0,2 4 2 - - N 1014,8 12
21.01.2018 06:00:00 1,6 0,6 4 2 18 10 N 1013,8 17
21.01.2018 05:00:00 0,8 0,5 7 4 11 6 WZW 1013,2 5
21.01.2018 04:00:00 1,7 1,4 7 4 - - W 1012,0 5
21.01.2018 03:00:00 1,5 1,3 7 4 11 6 W 1011,2 2,4
21.01.2018 02:00:00 1,4 1,3 7 4 11 6 WZW 1010,2 1,5
21.01.2018 01:00:00 2,3 2,2 4 2 - - N 1008,7 2,9
21.01.2018 00:00:00 1,8 1,7 4 2 7 4 N 1007,1 2,5
20.01.2018 23:00:00 1,7 1,5 4 2 11 6 N 1005,7 2,3
20.01.2018 22:00:00 2,0 1,9 7 4 - - N 1004,3 2,7
20.01.2018 21:00:00 2,0 1,9 4 2 7 4 N 1002,7 2,6
20.01.2018 20:00:00 2,0 1,8 4 2 11 6 N 1001,7 2,9
20.01.2018 19:00:00 2,4 2,2 7 4 - - N 1000,8 3,1
20.01.2018 18:00:00 2,4 2,1 4 2 7 4 N 999,9 5
20.01.2018 17:00:00 2,5 2,0 4 2 14 8 N 999,0 17
20.01.2018 16:00:00 2,7 2,1 7 4 - - O 998,9 20
20.01.2018 15:00:00 3,2 2,7 7 4 14 8 ZO 999,3 11
20.01.2018 14:00:00 3,2 2,6 4 2 18 10 N 1000,1 8
20.01.2018 13:00:00 3,5 2,8 7 4 - - ZO 1001,2 12
20.01.2018 12:00:00 3,5 3,1 4 2 14 8 N 1002,7 10
20.01.2018 11:00:00 3,5 3,0 11 6 18 10 Z 1003,6 8
20.01.2018 10:00:00 3,2 2,7 14 8 - - Z 1004,5 7
20.01.2018 09:00:00 3,2 2,5 14 8 25 14 Z 1005,5 10
20.01.2018 08:00:00 2,7 2,1 18 10 29 16 Z 1006,1 15
20.01.2018 07:00:00 2,5 1,8 18 10 - - ZZW 1007,1 14
20.01.2018 06:00:00 1,8 0,9 14 8 22 12 ZZW 1007,7 19
20.01.2018 05:00:00 1,6 0,7 14 8 25 14 ZZW 1008,3 19
20.01.2018 04:00:00 1,2 0,3 14 8 - - ZZW 1009,3 16
20.01.2018 03:00:00 0,9 0,1 11 6 18 10 Z 1010,2 15
20.01.2018 02:00:00 1,0 0,0 11 6 18 10 ZZW 1010,2 17
20.01.2018 01:00:00 1,7 0,3 11 6 - - ZW 1010,3 19
20.01.2018 00:00:00 2,0 0,6 14 8 22 12 ZZW 1010,5 19
19.01.2018 23:00:00 2,7 0,7 14 8 25 14 ZZW 1010,7 20
19.01.2018 22:00:00 3,0 0,9 14 8 - - ZZW 1010,5 20
19.01.2018 21:00:00 3,1 0,6 14 8 25 14 ZZW 1010,5 19
19.01.2018 20:00:00 3,2 -0,1 11 6 22 12 ZW 1010,2 20
19.01.2018 19:00:00 3,4 -0,4 11 6 - - WZW 1010,6 20
19.01.2018 18:00:00 3,8 -0,2 11 6 22 12 WZW 1010,2 20
19.01.2018 17:00:00 5,3 -0,6 14 8 22 12 W 1010,0 20
19.01.2018 16:00:00 6,1 -0,3 11 6 - - W 1010,0 20
19.01.2018 15:00:00 6,5 0,1 14 8 32 18 WZW 1010,1 20
19.01.2018 14:00:00 6,2 0,7 18 10 29 16 WZW 1010,3 20
19.01.2018 13:00:00 5,4 1,2 14 8 - - WZW 1010,6 20
19.01.2018 12:00:00 4,9 2,1 11 6 22 12 ZW 1010,6 20
19.01.2018 11:00:00 2,8 1,1 11 6 18 10 ZZW 1010,5 17
19.01.2018 10:00:00 1,8 0,3 11 6 - - ZZW 1010,3 19
19.01.2018 09:00:00 1,5 0,1 11 6 18 10 ZZW 1009,7 19
19.01.2018 08:00:00 1,7 0,2 11 6 22 12 ZW 1009,2 20
19.01.2018 07:00:00 2,0 0,3 14 8 - - WZW 1008,7 20
19.01.2018 06:00:00 2,3 0,6 11 6 25 14 WZW 1008,3 20
19.01.2018 05:00:00 3,0 1,1 11 6 40 21 WZW 1007,6 20
19.01.2018 04:00:00 3,7 1,9 18 10 - - W 1007,3 20
19.01.2018 03:00:00 3,7 1,9 14 8 29 16 W 1006,7 18
19.01.2018 02:00:00 3,5 2,1 7 4 22 12 W 1006,0 16
19.01.2018 01:00:00 3,5 2,3 11 6 - - WZW 1005,7 20
19.01.2018 00:00:00 3,0 1,9 11 6 29 16 WZW 1005,1 20
18.01.2018 23:00:00 2,5 2,1 7 4 11 6 ZZW 1004,7 20
18.01.2018 22:00:00 3,1 2,9 7 4 - - WZW 1004,2 16
18.01.2018 21:00:00 3,0 2,5 4 2 50 27 N 1004,2 8
18.01.2018 20:00:00 5,2 2,4 7 4 14 8 ZZO 1002,7 20
18.01.2018 19:00:00 5,5 2,1 7 4 - - NNW 1003,2 20
18.01.2018 18:00:00 6,0 2,1 4 2 18 10 N 1003,1 20
18.01.2018 17:00:00 7,0 1,8 11 6 22 12 W 1003,2 20
18.01.2018 16:00:00 7,0 1,8 7 4 - - W 1003,2 20
18.01.2018 15:00:00 7,4 1,0 14 8 43 23 W 1002,8 20
18.01.2018 14:00:00 7,8 0,8 25 14 47 25 WNW 1003,0 20
18.01.2018 13:00:00 7,9 1,1 22 12 - - W 1002,3 20
18.01.2018 12:00:00 7,8 1,5 25 14 65 35 WNW 1001,7 20

tt = temperatuur
td = dauwpunt
ff = windsnelheid
fx = windstoten
dd = windrichting
ppp = luchtdruk
vv = zicht

Weerstations in de omgeving